Regional Weather Roundup
Issued by NWS Pendleton, OR

Home | Current Version | Previous Version | Text Only | Print | Product List | Glossary On
Versions: 1 2 3 4 5 6 7 8 9 10 11 12 13 14 15 16 17 18 19 20 21 22 23 24 25 26 27 28 29 30 31 32 33 34 35 36 37 38 39 40 41 42 43 44 45 46 47 48 49 50
108
ASUS46 KPDT 262225
RWRPDT
PENDLETON REGIONAL WEATHER ROUNDUP
NATIONAL WEATHER SERVICE PENDLETON OREGON
300 PM PDT WED JUL 26 2017

NOTE: FAIR INDICATES FEW OR NO CLOUDS BELOW 12,000 FEET WITH NO
SIGNIFICANT WEATHER AND/OR OBSTRUCTIONS TO VISIBILITY.

# INDICATES UNOFFICIAL STATION AND DATA

WAZ520-262310-
EAST SLOPES OF WASHINGTON CASCADES

CITY            SKY/WX      TMP DP  RH  WIND    PRES   REMARKS
#BULLFROG       N/A         88  49  26  S3      N/A
#CLE ELUM HS    N/A         87  44  22  SW1     29.92F
#CLE ELUM LAKE  N/A         84  49  30  W1      30.02F
#EASTON DOT     N/A         84  50  31  SW1     N/A
#ELK HTS DOT    N/A         88  88  100 SW1     N/A
#GLENWOOD       N/A         87  60  40  SW1     29.89F
#NELSON 3SW     N/A         84  48  29  CALM    30.07S
#NILE           N/A         91  50  25  NW3     29.14F HX 88
#TEANAWAY 4NE   N/A         91  54  29  W6      N/A    HX 89
#TROUT LAKE 1NE N/A         86  59  40  W9      29.89F
#TROUT LAKE 1E  N/A         89  58  35  W9      30.02F
$$

WAZ521-262310-
SIMCOE HIGHLANDS

CITY            SKY/WX      TMP DP  RH  WIND    PRES   REMARKS
#BICKLETON HS   N/A         86  52  31  W14     29.97F
#CENTERVILLE 1SWN/A         88  48  25  W9      29.84F
#GOLDENDALE 1NE N/A         90  26  10  CALM    N/A    HX 86
#GOLDENDALE 4W  N/A         91  32  12  W13     30.01F HX 87
#GOODNOE HILLS  N/A         96  52  23  W20     N/A    HX 93
#LYLE 6NE       N/A         81  55  41  E7      29.92F
#PITT 4SE       N/A         79  50  36  SW1     29.93F
$$

WAZ026-262310-
KITTITAS VALLEY

CITY            SKY/WX      TMP DP  RH  WIND    PRES   REMARKS
ELLENSBURG AP   PTCLDY      97  45  17  E7      29.95F HX 93
#ELLENSBURG CWU N/A         93  47  21  SW1     29.80F HX 89
#ELLENSBURG 3NE N/A         89  51  27  CALM    28.03F
#ELLENSBURG 1E  N/A         92  46  21  CALM    29.89F HX 88
#KITTITAS 3S    N/A         89  56  33  S5      29.84F
#MANASTASH RDG  N/A         91  91  100 SW1     N/A    HX 137
#ROCKY CYN DOT  N/A         96  58  28  SW1     N/A    HX 95
#RYEGRASS DOT   N/A         90  52  27  SW1     N/A    HX 87
$$

WAZ027-262310-
YAKIMA VALLEY

CITY            SKY/WX      TMP DP  RH  WIND    PRES   REMARKS
SUNNYSIDE AP    N/A         86  61  43  E9      29.90F
YAKIMA AIRPORT  PTCLDY      97  48  19  VRB7    29.92F HX 94
YAKIMA-VAGABOND SUNNY       93  39  15  S10     29.91F HX 89
#DONALD 2NE     N/A         98  32  10  SW3     28.77F HX 93
#GRANDVIEW      N/A         88  52  29  E1      29.87F
#MABTON         N/A         89  56  33  CALM    29.88F
#MOXEE 2E       N/A         91  N/A N/A S2      29.82F
#NACHES 2SW     N/A         91  58  33  W20     30.03S HX 90
#OUTLOOK DOT    N/A         94  50  23  S3      29.87F HX 91
#PARKER DOT     N/A         94  53  25  S3      29.92F HX 91
#TERRACE HTS    N/A         91  51  26  W1      29.82F HX 88
#TOPPENISH      N/A         93  56  29  W6      29.77F HX 91
#I82 S UMTANUM RN/A         92  54  28  N1      N/A    HX 90
#UNION GAP DOT  N/A         93  47  21  S3      29.94F HX 89
#W YAKIMA       N/A         91  54  29  S8      29.84F HX 89
#WHITE SWAN 5E  N/A         91  57  32  SW1     29.86F HX 90
#WILEY CITY 3W  N/A         93  33  12  S8      29.90F HX 89
#ZILLAH DOT     N/A         95  51  23  S3      N/A    HX 92
$$

WAZ028-262310-
LOWER COLUMBIA BASIN...WASHINGTON

CITY            SKY/WX      TMP DP  RH  WIND    PRES   REMARKS
HANFORD         MOCLDY      100 35  11  SW7     29.88F HX 95
PASCO           MOCLDY      96  46  18  SW8     29.90F HX 92
PROSSER AWOS    N/A         91  50  25  SE12    29.92F HX 88
RICHLAND AWOS   MOCLDY      97  43  16  SE9     29.89F HX 93
#BENTON CITY    N/A         92  46  21  W14     29.77F HX 88
#CONNELL 5N     N/A         94  48  21  CALM    29.88F HX 91
#CONNELL 5NW    N/A         92  57  31  SW3     29.83F HX 91
#ELTOPIA 6NW    N/A         90  61  38  W2      28.90F HX 90
#KAHLOTUS       N/A         92  46  21  NW3     29.86F HX 88
#KENNEWICK 3S   N/A         91  52  27  E1      29.88F HX 88
#PATERSON       N/A         91  55  30  W2      29.86F HX 89
#PROSSER DOT    N/A         92  44  19  S3      29.91F HX 88
#SAGEMOOR 2W    N/A         91  63  40  MISG    29.74F HX 92
#TOUCHET 2S     N/A         98  56  25  SW3     29.85F HX 97
#WEST PASCO     N/A         93  57  30  SW3     29.89F HX 92
$$

WAZ029-262310-
FOOTHILLS OF THE BLUES...WASHINGTON

CITY            SKY/WX      TMP DP  RH  WIND    PRES   REMARKS
WALLA WALLA AP  MOCLDY      97  40  14  SW12    29.95F HX 92
#CLYDE 6NW      N/A         92  41  17  NW3     29.86F HX 88
#DAYTON SCHOOL  N/A         93  42  17  SW1     29.98F HX 89
#LOWDEN 2SE     N/A         96  59  29  NW3     29.87F HX 95
#PLEASANT VIEW 1N/A         92  45  20  W2      29.89F HX 88
#PRESCOTT       N/A         95  54  25  CALM    29.86F HX 93
#WHITMAN COLLEGEN/A         94  45  19  CALM    29.92F HX 90
#WAITSBURG 5S   N/A         96  44  17  NW3     29.96F HX 92
#WAITSBURG 6SSE N/A         95  42  16  SW3     29.91F HX 91
#WALLA WALLA 5E N/A         95  48  20  S8      N/A    HX 91
#WHITMAN MISSIONN/A         95  56  27  CALM    29.89F HX 93
$$

WAZ030-262310-
BLUE MOUNTAINS...WASHINGTON

CITY            SKY/WX      TMP DP  RH  WIND    PRES   REMARKS
#DIXIE 5SE      N/A         76  39  26  NW3     29.99F
$$

ORZ009-041-WAZ024-262310-
COLUMBIA RIVER GORGE

CITY            SKY/WX      TMP DP  RH  WIND    PRES   REMARKS
HOOD RIVER AP   MOCLDY      86  52  31  W12     29.96F
THE DALLES AP   PTCLDY      89  55  32  N21G25  29.92F
#ARLINGTON AIRPON/A         93  50  23  W9      29.86F HX 90
#CELILO DOT     N/A         98  57  26  CALM    N/A    HX 97
#LYLE           N/A         84  56  38  SW1     29.92F
#MARYHILL       N/A         94  39  15  SW1     29.78F HX 90
#RUFUS DOT      N/A         94  N/A N/A SW1     N/A
#SMITHVILLE     N/A         86  53  32  NW16G25 29.89F

$$

ORZ510-262310-
NORTH CENTRAL OREGON

CITY            SKY/WX      TMP DP  RH  WIND    PRES   REMARKS
#ANTELOPE       N/A         85  52  32  SW3     29.71F
#CHENOWITH 1W   N/A         78  53  42  MISG    N/A
#COW CYN RST AREN/A         85  46  26  SW3     N/A
#DUFUR          N/A         91  42  18  SW3     29.85F HX 87
#DUFUR 9E       N/A         83  47  28  SW3     29.93F
#GRASS VALLEY 1SN/A         92  50  24  E7      30.03F HX 89
#KENT DOT       N/A         88  53  30  CALM    N/A
#MAUPIN SCHOOL  N/A         97  55  25  CALM    29.96F HX 95
#MORO SCHOOL    N/A         86  53  32  N1      29.97S
#SHANIKO 5WSW   N/A         83  51  33  E7      N/A
#SHANIKO 4NW    N/A         84  47  28  MISG    30.11F
#TYGH VALLEY 2NEN/A         94  53  25  S2      29.85F HX 91
#WAPANITIA AIRPON/A         91  49  24  SW3     29.86F HX 88
#WASCO 5NE      N/A         93  53  26  CALM    29.86F HX 91
$$

ORZ511-262310-
CENTRAL OREGON

CITY            SKY/WX      TMP DP  RH  WIND    PRES   REMARKS
BEND AIRPORT    CLOUDY      84  50  31  E6      30.10F
MADRAS AIRPORT  MOCLDY      86  46  25  CALM    30.05F
PRINEVILLE AP   CLOUDY      82  46  28  VRB3    30.09F
REDMOND AIRPORT CLOUDY      83  44  25  CALM    30.07F
#ASHWOOD SCHOOL N/A         85  46  26  N8      29.99F
#BEND 1SW       N/A         85  53  33  SW3     N/A
#BEND-AWBREY    N/A         84  56  38  CALM    29.87F
#BEND-KIM LN    N/A         82  54  38  MISG    29.84F
#CULVER         N/A         86  53  32  W9      29.80F
#CULVER 8W      N/A         87  47  25  SE7     30.06F
#LAKE BILLY CHINN/A         87  N/A N/A S5      29.95F
#MADRAS 4S      N/A         85  24  11  CALM    N/A
#POWELL BUTTE   N/A         81  47  30  N6      30.04F
#PRINEVILLE     N/A         81  50  34  SW3     29.97F
#PRINEVILLE 3N  N/A         80  58  47  N1      29.98F
#WARM SPRINGS   N/A         94  57  29  W9      29.75F HX 93

$$


ORZ509-262310-
EAST SLOPES OF OREGON CASCADES

CITY            SKY/WX      TMP DP  RH  WIND    PRES   REMARKS
SISTERS AWOS    N/A         81  52  37  S8      N/A
#BLUE BOX PASS  N/A         77  N/A N/A SW3     N/A
#CAMP SHERMAN   N/A         89  51  27  E7      29.97F
#LA PINE 4NW    N/A         80  54  41  CALM    29.94F
#LAVA BUTTE DOT N/A         77  50  39  S8      N/A
#SISTERS ODOT   N/A         81  50  34  CALM    N/A
#SISTERS 3N     N/A         82  54  38  CALM    29.98F
#SUNRIVER       N/A         80  55  42  SW1     30.06F
#TUMALO 3W      N/A         79  53  41  SW3     29.77F
#WANOGA BUTTE D N/A         70  46  42  N1      N/A

$$

ORZ044-262310-
LOWER COLUMBIA BASIN...OREGON

CITY            SKY/WX      TMP DP  RH  WIND    PRES   REMARKS
HERMISTON       CLOUDY      94  50  23  NW7     29.92F HX 91
#BOARDMAN SCHOOLN/A         95  49  21  SW1     29.88F HX 92
#BOARDMAN 8SW   N/A         93  51  24  SW2     29.86F HX 90
#ECHO 8SW       N/A         94  56  28  SW3     29.93F HX 92
#I-84 EX 198 DOTN/A         93  62  36  SW3     N/A    HX 94
#IONE SCHOOL    N/A         91  47  22  CALM    29.88F HX 88
#UMATILLA       N/A         97  55  25  CALM    29.81F HX 95
$$

ORZ507-262310-
NORTHERN FOOTHILLS OF THE BLUES

CITY            SKY/WX      TMP DP  RH  WIND    PRES   REMARKS
PENDLETON AIRPT PTCLDY      94  47  20  NW12    29.97F HX 90
#ADAMS 3WNW     N/A         92  46  21  CALM    29.87F HX 88
#ATHENA         N/A         92  45  20  CALM    29.91F HX 88
#CAYUSE         N/A         92  46  21  N8      29.86F HX 88
#HELIX SCHOOL   N/A         92  45  20  CALM    29.89F HX 88
#HELIX 3N       N/A         91  42  18  CALM    29.97F HX 87
#HOLDMAN 6E     N/A         91  51  26  SW3     29.70F HX 88
#M-F GROVE ELEM N/A         93  45  19  N8      29.92F HX 89
#M-FREEWATER 5SEN/A         91  55  30  N8      29.95F HX 89
#PENDLETON DNTN N/A         95  51  23  N8      29.92F HX 92
#PDT AQUATIC CTRN/A         92  53  27  E1      29.96S HX 90
#PDT SUNRIDGE   N/A         93  53  26  SW1     29.96F HX 91
#PENDLETON 7NW  N/A         91  60  36  W14     29.96F HX 91
#PILOT ROCK 1S  N/A         89  51  27  SW3     29.99F
#PILOT ROCK     N/A         92  51  25  CALM    30.00F HX 89
#TUTUILLA       N/A         92  52  26  NW3     29.99F HX 89
#UMAPINE 2E     N/A         96  59  29  MISG    29.89F HX 95
#WESTON SCHOOL  N/A         90  36  15  SW1     29.89F HX 86

$$

ORZ508-262310-
SOUTHERN FOOTHILLS OF THE BLUES

CITY            SKY/WX      TMP DP  RH  WIND    PRES   REMARKS
LEXINGTON       MOCLDY      91  45  20  CALM    30.00F HX 87
#AJAX           N/A         90  48  24  SW3     30.14F HX 87
#CONDON 5W      N/A         83  44  25  MISG    30.06F
#FOSSIL SCHOOL  N/A         87  47  25  SW3     29.98F
#HEPPNER EOC    N/A         88  48  25  N1      29.82F
#HEPPNER 4NE    N/A         85  47  27  SW2     29.88F
#LEXINGTON 2SE  N/A         93  50  23  CALM    29.92F HX 90
#MIKKALO        N/A         91  47  22  N8      30.09F HX 88
#OLEX 4N        N/A         92  50  24  SW3     29.91F HX 89
#RUGGS 5NE      N/A         90  45  21  SW1     30.20F HX 86
#RUGGS 2SW      N/A         89  50  26  SW2     29.89F

$$

ORZ502-503-262310-
BLUE MOUNTAINS

CITY            SKY/WX      TMP DP  RH  WIND    PRES   REMARKS
MEACHAM         MOCLDY      86  27  12  CALM    30.10F
#BATTLE MTN DOT N/A         82  47  29  CALM    N/A
#GRANITE        N/A         71  57  61  E3      29.80S
#HEPPNER 15SE   N/A         83  46  27  W2      29.95F
#LADD CYN SMT   N/A         88  52  29  CALM    N/A
#LADD CREEK ODOTN/A         87  53  31  S8      N/A
#LONG CREEK HS  N/A         85  43  23  CALM    N/A
#N POWDER DOT   N/A         87  57  36  N1      N/A
#PIKES PEAK     N/A         81  44  27  E7      27.99S
#TOLLGATE       N/A         77  43  30  W9      30.03F
#TROY SCHOOL    N/A         95  43  17  SW3     29.71F HX 91
#UKIAH          N/A         88  46  23  N1      29.82F
#WESTON 4E      N/A         88  39  18  NW3     29.85F
$$

ORZ505-262310-
JOHN DAY BASIN

CITY            SKY/WX      TMP DP  RH  WIND    PRES   REMARKS
JOHN DAY        PTCLDY      89  43  20  SW9     30.07F
#JOHN DAY KJDY  N/A         91  N/A N/A NW3     30.64F
#ANTELOPE 9ESE  N/A         90  46  22  W6      N/A    HX 87
#DAYVILLE SCHOOLN/A         92  42  18  S5      29.95F HX 88
#MITCHELL       N/A         86  53  32  SW1     30.20F
#MITCHELL 8NW   N/A         86  44  23  NW3     29.91F
#MONUMENT HS    N/A         95  45  18  W9      29.92F HX 91
#MT. VERNON 5SE N/A         88  44  22  SW3     30.03F
#SPRAY SCHOOL   N/A         93  N/A N/A SW1     N/A
$$

ORZ506-262310-
OCHOCO AND JOHN DAY HIGHLANDS

CITY            SKY/WX      TMP DP  RH  WIND    PRES   REMARKS
#HORSE RIDGE DO N/A         75  49  40  SW3     N/A
#IZEE 6NW       N/A         93  50  23  N2      N/A    HX 90
#PAULINA ODOT   N/A         89  40  18  W9      N/A
#PINE MTN OBS   N/A         68  48  49  CALM    N/A
#PRAIRIE CITY   N/A         84  52  33  SW1     30.20F
#SENECA         N/A         82  N/A N/A CALM    N/A
#SENECA 9NW     N/A         81  45  28  NW3     29.81F
$$

ORZ049-262310-
GRANDE RONDE VALLEY

CITY            SKY/WX      TMP DP  RH  WIND    PRES   REMARKS
LA GRANDE       CLOUDY      88  43  21  N6      30.03F
#COVE           N/A         87  54  32  S3      30.07F
#COVE SCHOOL    N/A         88  49  26  S2      30.06F
#COVE 6NW       N/A         87  47  25  SW1     29.90F
#ELGIN 3N       N/A         86  38  18  CALM    30.00F
#ELGIN 1E       N/A         87  46  24  N8      N/A
#IMBLER SCHOOL  N/A         84  45  26  S5      30.01F
#ISLAND CITY 4N N/A         86  59  40  W9      30.03F
#LA GRANDE-LEFFEN/A         95  45  18  S3      30.04F HX 91
#UNION 1S       N/A         89  49  25  E1      29.88F
$$

ORZ050-262310-
WALLOWA COUNTY

CITY            SKY/WX      TMP DP  RH  WIND    PRES   REMARKS
JOSEPH AIRPORT  PTCLDY      84  41  22  CALM    30.14F
#ENTERPRISE HS  N/A         77  53  43  SW1     29.79F
#IMNAHA SCHOOL  N/A         92  42  18  SW3     29.96F HX 88
#IMNAHA 10S     N/A         94  42  17  SW3     30.02F HX 90
#JOSEPH         N/A         80  44  28  N3      30.06F
#JOSEPH 3N      N/A         77  46  33  SW3     30.14F
#JOSEPH 3W      N/A         81  50  34  E7      29.99
#LOSTINE        N/A         80  50  35  SW1     29.72F
#LOSTINE 3SE    N/A         80  47  31  SE13    30.14F
#MT HOWARD 8000 N/A         64  40  41  SW3     30.42F
#PROMISE 1S     N/A         81  47  30  MISG    30.01R
#WALLOWA LAKE   N/A         82  47  29  E3      30.17F
#WALLOWA SCHOOL N/A         87  45  23  SW1     30.02F



$$



USA.gov is the U.S. government's official web portal to all federal, state and local government web resources and services.